Time,TemperatureF,DewpointF,PressureIn,WindDirection,WindDirectionDegrees,WindSpeedMPH,WindSpeedGustMPH,Humidity,HourlyPrecipIn,Conditions,Clouds,dailyrainin,SoftwareType,DateUTC
2013-02-10 00:10:00,33.0,25.9,30.06,NNW,338,0.0,0.0,75,0.00,,,0.00,WUHU216HW,2013-02-10 05:10:00,
2013-02-10 00:15:00,32.5,25.7,30.06,NNW,338,0.0,0.0,76,0.00,,,0.00,WUHU216HW,2013-02-10 05:15:00,
2013-02-10 00:20:00,32.3,25.6,30.07,NNW,338,0.0,0.0,76,0.00,,,0.00,WUHU216HW,2013-02-10 05:20:00,
2013-02-10 00:25:00,32.1,25.4,30.07,NNW,338,0.0,0.0,75,0.00,,,0.00,WUHU216HW,2013-02-10 05:25:00,
2013-02-10 00:30:00,32.1,25.4,30.07,NNW,338,0.0,0.0,75,0.00,,,0.00,WUHU216HW,2013-02-10 05:30:00,
2013-02-10 00:35:00,31.8,24.8,30.07,NNW,338,0.0,0.0,75,0.00,,,0.00,WUHU216HW,2013-02-10 05:35:00,
2013-02-10 00:40:00,31.6,24.6,30.07,NNW,338,0.0,0.0,75,0.00,,,0.00,WUHU216HW,2013-02-10 05:40:00,
2013-02-10 00:45:00,31.6,24.6,30.07,NNW,338,0.0,0.0,75,0.00,,,0.00,WUHU216HW,2013-02-10 05:45:00,
2013-02-10 00:50:00,31.6,24.6,30.07,NNW,338,0.0,0.0,75,0.00,,,0.00,WUHU216HW,2013-02-10 05:50:00,
2013-02-10 00:55:00,31.4,24.4,30.07,NNW,338,0.0,0.0,75,0.00,,,0.00,WUHU216HW,2013-02-10 05:55:00,
2013-02-10 01:00:00,31.2,24.2,30.07,NNW,338,0.0,0.0,75,0.00,,,0.00,WUHU216HW,2013-02-10 06:00:00,
2013-02-10 01:01:00,55.4,24.4,29.83,NW,315,0.0,0.0,30,0.00,,,0.00,WUHU216HW,2013-02-10 06:01:00,
2013-02-10 01:02:00,55.4,24.4,29.83,NW,315,0.0,0.0,30,0.00,,,0.00,WUHU216HW,2013-02-10 06:02:00,
2013-02-10 01:03:00,55.4,24.4,29.83,NW,315,0.0,0.0,30,0.00,,,0.00,WUHU216HW,2013-02-10 06:03:00,
2013-02-10 01:04:00,55.2,24.2,29.83,NW,315,0.0,0.0,30,0.00,,,0.00,WUHU216HW,2013-02-10 06:04:00,
2013-02-10 01:05:00,31.2,24.2,30.07,NNW,338,0.0,0.0,76,0.00,,,0.00,WUHU216HW,2013-02-10 06:05:00,
2013-02-10 01:06:00,55.2,24.2,29.83,NW,315,0.0,0.0,30,0.00,,,0.00,WUHU216HW,2013-02-10 06:06:00,
2013-02-10 01:07:00,55.2,24.2,29.83,NW,315,0.0,0.0,31,0.00,,,0.00,WUHU216HW,2013-02-10 06:07:00,
2013-02-10 01:08:00,55.2,24.2,29.83,NW,315,0.0,0.0,31,0.00,,,0.00,WUHU216HW,2013-02-10 06:08:00,
2013-02-10 01:09:00,55.2,24.2,29.84,NW,315,0.0,0.0,31,0.00,,,0.00,WUHU216HW,2013-02-10 06:09:00,
2013-02-10 01:10:00,31.1,24.4,30.07,NNW,338,0.0,0.0,76,0.00,,,0.00,WUHU216HW,2013-02-10 06:10:00,
2013-02-10 01:12:00,55.2,24.2,29.84,NW,315,0.0,0.0,31,0.00,,,0.00,WUHU216HW,2013-02-10 06:12:00,
2013-02-10 01:13:00,55.2,24.2,29.84,NW,315,0.0,0.0,31,0.00,,,0.00,WUHU216HW,2013-02-10 06:13:00,
2013-02-10 01:15:00,30.9,24.2,30.07,NNW,338,0.0,0.0,77,0.00,,,0.00,WUHU216HW,2013-02-10 06:15:00,
2013-02-10 01:20:00,30.9,24.2,30.07,NNW,338,0.0,0.0,77,0.00,,,0.00,WUHU216HW,2013-02-10 06:20:00,
2013-02-10 01:25:00,30.9,24.2,30.07,NNW,338,0.0,0.0,77,0.00,,,0.00,WUHU216HW,2013-02-10 06:25:00,
2013-02-10 01:30:00,30.9,24.2,30.07,NNW,338,0.0,0.0,78,0.00,,,0.00,WUHU216HW,2013-02-10 06:30:00,
2013-02-10 01:35:00,30.9,24.2,30.07,NNW,338,0.0,0.0,78,0.00,,,0.00,WUHU216HW,2013-02-10 06:35:00,
2013-02-10 01:40:00,30.7,24.6,30.07,NNW,338,0.0,0.0,78,0.00,,,0.00,WUHU216HW,2013-02-10 06:40:00,
2013-02-10 01:45:00,30.7,24.6,30.07,NNW,338,0.0,0.0,78,0.00,,,0.00,WUHU216HW,2013-02-10 06:45:00,
2013-02-10 01:50:00,30.5,24.5,30.07,NNW,338,0.0,0.0,78,0.00,,,0.00,WUHU216HW,2013-02-10 06:50:00,
2013-02-10 01:55:00,30.5,24.5,30.08,NNW,338,0.0,0.0,79,0.00,,,0.00,WUHU216HW,2013-02-10 06:55:00,
2013-02-10 02:00:00,30.5,24.5,30.08,NNW,338,0.0,0.0,79,0.00,,,0.00,WUHU216HW,2013-02-10 07:00:00,
2013-02-10 02:05:00,30.3,24.6,30.08,NNW,338,0.0,0.0,79,0.00,,,0.00,WUHU216HW,2013-02-10 07:05:00,
2013-02-10 02:10:00,30.3,24.6,30.08,NNW,338,0.0,0.0,79,0.00,,,0.00,WUHU216HW,2013-02-10 07:10:00,
2013-02-10 02:15:00,30.3,24.6,30.09,NNW,338,0.0,0.0,79,0.00,,,0.00,WUHU216HW,2013-02-10 07:15:00,
2013-02-10 02:20:00,30.0,24.2,30.09,NNW,338,0.0,0.0,79,0.00,,,0.00,WUHU216HW,2013-02-10 07:20:00,
2013-02-10 02:25:00,30.0,24.2,30.09,NNW,338,0.0,0.0,79,0.00,,,0.00,WUHU216HW,2013-02-10 07:25:00,
2013-02-10 02:30:00,29.8,24.1,30.09,NNW,338,0.0,0.0,79,0.00,,,0.00,WUHU216HW,2013-02-10 07:30:00,
2013-02-10 02:35:00,29.8,24.1,30.09,NNW,338,0.0,0.0,79,0.00,,,0.00,WUHU216HW,2013-02-10 07:35:00,
2013-02-10 02:40:00,29.8,24.1,30.10,NNW,338,0.0,0.0,80,0.00,,,0.00,WUHU216HW,2013-02-10 07:40:00,
2013-02-10 02:45:00,29.8,24.1,30.09,NNW,338,0.0,0.0,80,0.00,,,0.00,WUHU216HW,2013-02-10 07:45:00,
2013-02-10 02:50:00,29.8,24.1,30.10,NNW,338,0.0,0.0,80,0.00,,,0.00,WUHU216HW,2013-02-10 07:50:00,
2013-02-10 02:55:00,29.4,24.0,30.10,NNW,338,0.0,0.0,80,0.00,,,0.00,WUHU216HW,2013-02-10 07:55:00,
2013-02-10 03:00:00,29.4,24.0,30.10,NNW,338,0.0,0.0,80,0.00,,,0.00,WUHU216HW,2013-02-10 08:00:00,
2013-02-10 03:05:00,29.3,23.9,30.09,NNW,338,0.0,0.0,80,0.00,,,0.00,WUHU216HW,2013-02-10 08:05:00,
2013-02-10 03:10:00,29.1,23.7,30.10,NNW,338,0.0,0.0,80,0.00,,,0.00,WUHU216HW,2013-02-10 08:10:00,
2013-02-10 03:15:00,28.9,23.5,30.10,NNW,338,0.0,0.0,80,0.00,,,0.00,WUHU216HW,2013-02-10 08:15:00,
2013-02-10 03:20:00,28.9,23.5,30.10,NNW,338,0.0,0.0,81,0.00,,,0.00,WUHU216HW,2013-02-10 08:20:00,
2013-02-10 03:25:00,29.3,24.1,30.09,NNW,338,0.0,0.0,81,0.00,,,0.00,WUHU216HW,2013-02-10 08:25:00,
2013-02-10 03:30:00,29.3,24.1,30.10,NNW,338,0.0,0.0,82,0.00,,,0.00,WUHU216HW,2013-02-10 08:30:00,
2013-02-10 03:35:00,29.1,24.0,30.10,NNW,338,0.0,0.0,81,0.00,,,0.00,WUHU216HW,2013-02-10 08:35:00,
2013-02-10 03:40:00,29.3,24.4,30.10,NNW,338,0.0,0.0,82,0.00,,,0.00,WUHU216HW,2013-02-10 08:40:00,
2013-02-10 03:45:00,29.3,24.4,30.10,NNW,338,0.0,0.0,82,0.00,,,0.00,WUHU216HW,2013-02-10 08:45:00,
2013-02-10 03:50:00,29.3,24.4,30.10,NNW,338,0.0,0.0,82,0.00,,,0.00,WUHU216HW,2013-02-10 08:50:00,
2013-02-10 03:55:00,29.1,24.2,30.10,NNW,338,0.0,0.0,82,0.00,,,0.00,WUHU216HW,2013-02-10 08:55:00,
2013-02-10 04:00:00,29.1,24.2,30.10,NNW,338,0.0,0.0,82,0.00,,,0.00,WUHU216HW,2013-02-10 09:00:00,
2013-02-10 04:05:00,28.9,24.1,30.10,NNW,338,0.0,0.0,82,0.00,,,0.00,WUHU216HW,2013-02-10 09:05:00,
2013-02-10 04:10:00,28.7,23.9,30.10,NNW,338,0.0,0.0,82,0.00,,,0.00,WUHU216HW,2013-02-10 09:10:00,
2013-02-10 04:15:00,28.5,23.7,30.10,NNW,338,0.0,0.0,82,0.00,,,0.00,WUHU216HW,2013-02-10 09:15:00,
2013-02-10 04:20:00,28.5,23.7,30.10,NNW,338,0.0,0.0,82,0.00,,,0.00,WUHU216HW,2013-02-10 09:20:00,
2013-02-10 04:25:00,28.5,23.7,30.10,NNW,338,0.0,0.0,82,0.00,,,0.00,WUHU216HW,2013-02-10 09:25:00,
2013-02-10 04:30:00,28.5,23.7,30.10,NNW,338,0.0,0.0,82,0.00,,,0.00,WUHU216HW,2013-02-10 09:30:00,
2013-02-10 04:35:00,28.5,23.7,30.10,NNW,338,0.0,0.0,82,0.00,,,0.00,WUHU216HW,2013-02-10 09:35:00,
2013-02-10 04:40:00,28.5,23.7,30.10,NNW,338,0.0,0.0,82,0.00,,,0.00,WUHU216HW,2013-02-10 09:40:00,
2013-02-10 04:45:00,28.5,23.7,30.10,NNW,338,0.0,0.0,82,0.00,,,0.00,WUHU216HW,2013-02-10 09:45:00,
2013-02-10 04:50:00,28.7,23.9,30.10,NNW,338,0.0,0.0,82,0.00,,,0.00,WUHU216HW,2013-02-10 09:50:00,
2013-02-10 04:55:00,28.7,23.9,30.10,NNW,338,0.0,0.0,82,0.00,,,0.00,WUHU216HW,2013-02-10 09:55:00,
2013-02-10 05:00:00,28.9,24.1,30.10,NNW,338,0.0,0.0,82,0.00,,,0.00,WUHU216HW,2013-02-10 10:00:00,
2013-02-10 05:05:00,28.9,24.1,30.10,NNW,338,0.0,0.0,81,0.00,,,0.00,WUHU216HW,2013-02-10 10:05:00,
2013-02-10 05:09:00,45.6,24.3,29.91,ENE,68,0.0,0.0,43,0.00,,,0.00,WUHU216HW,2013-02-10 10:09:00,
2013-02-10 05:10:00,28.9,24.1,30.10,NNW,338,0.0,0.0,81,0.00,,,0.00,WUHU216HW,2013-02-10 10:10:00,
2013-02-10 05:11:00,45.6,24.3,29.91,ENE,68,0.0,0.0,43,0.00,,,0.00,WUHU216HW,2013-02-10 10:11:00,
2013-02-10 05:12:00,45.6,24.3,29.91,ENE,68,0.0,0.0,43,0.00,,,0.00,WUHU216HW,2013-02-10 10:12:00,
2013-02-10 05:15:00,29.1,24.0,30.10,NNW,338,0.0,0.0,81,0.00,,,0.00,WUHU216HW,2013-02-10 10:15:00,
2013-02-10 05:16:00,45.5,24.1,29.91,NNE,23,0.0,0.0,43,0.00,,,0.00,WUHU216HW,2013-02-10 10:16:00,
2013-02-10 05:17:00,45.6,24.3,29.92,NE,45,0.0,0.0,43,0.00,,,0.00,WUHU216HW,2013-02-10 10:17:00,
2013-02-10 05:20:00,29.1,24.0,30.11,NNW,338,0.0,0.0,81,0.00,,,0.00,WUHU216HW,2013-02-10 10:20:00,
2013-02-10 05:21:00,45.5,24.1,29.90,North,0,0.0,0.0,43,0.00,,,0.00,WUHU216HW,2013-02-10 10:21:00,
2013-02-10 05:22:00,45.5,24.1,29.90,NE,45,0.0,0.0,43,0.00,,,0.00,WUHU216HW,2013-02-10 10:22:00,
2013-02-10 05:23:00,45.5,24.1,29.90,NE,45,0.0,0.0,43,0.00,,,0.00,WUHU216HW,2013-02-10 10:23:00,
2013-02-10 05:24:00,45.5,24.1,29.90,NNE,23,0.0,0.0,43,0.00,,,0.00,WUHU216HW,2013-02-10 10:24:00,
2013-02-10 05:25:00,29.1,24.0,30.11,NNW,338,0.0,0.0,81,0.00,,,0.00,WUHU216HW,2013-02-10 10:25:00,
2013-02-10 05:30:00,29.1,24.0,30.11,NNW,338,0.0,0.0,81,0.00,,,0.00,WUHU216HW,2013-02-10 10:30:00,
2013-02-10 05:35:00,29.1,24.0,30.11,NNW,338,0.0,0.0,81,0.00,,,0.00,WUHU216HW,2013-02-10 10:35:00,
2013-02-10 05:36:00,45.5,24.1,29.91,NE,45,0.0,0.0,43,0.00,,,0.00,WUHU216HW,2013-02-10 10:36:00,
2013-02-10 05:37:00,45.5,24.1,29.91,NE,45,0.0,0.0,43,0.00,,,0.00,WUHU216HW,2013-02-10 10:37:00,
2013-02-10 05:38:00,45.5,24.1,29.91,NE,45,0.0,0.0,43,0.00,,,0.00,WUHU216HW,2013-02-10 10:38:00,
2013-02-10 05:39:00,45.5,24.1,29.91,NE,45,0.0,0.0,43,0.00,,,0.00,WUHU216HW,2013-02-10 10:39:00,
2013-02-10 05:40:00,29.1,24.0,30.12,NNW,338,0.0,0.0,81,0.00,,,0.00,WUHU216HW,2013-02-10 10:40:00,
2013-02-10 05:42:00,45.5,24.1,29.90,ENE,68,0.0,0.0,42,0.00,,,0.00,WUHU216HW,2013-02-10 10:42:00,
2013-02-10 05:43:00,45.5,24.1,29.90,NE,45,0.0,0.0,42,0.00,,,0.00,WUHU216HW,2013-02-10 10:43:00,
2013-02-10 05:44:00,45.5,24.1,29.90,NE,45,0.0,0.0,42,0.00,,,0.00,WUHU216HW,2013-02-10 10:44:00,
2013-02-10 05:45:00,29.1,24.0,30.12,NNW,338,0.0,0.0,81,0.00,,,0.00,WUHU216HW,2013-02-10 10:45:00,
2013-02-10 05:46:00,45.5,24.1,29.90,ENE,68,0.0,0.0,43,0.00,,,0.00,WUHU216HW,2013-02-10 10:46:00,
2013-02-10 05:47:00,45.5,24.1,29.90,NE,45,0.0,0.0,43,0.00,,,0.00,WUHU216HW,2013-02-10 10:47:00,
2013-02-10 05:48:00,45.5,24.1,29.90,NE,45,0.0,0.0,43,0.00,,,0.00,WUHU216HW,2013-02-10 10:48:00,
2013-02-10 05:49:00,45.5,24.1,29.91,NE,45,0.0,0.0,43,0.00,,,0.00,WUHU216HW,2013-02-10 10:49:00,
2013-02-10 05:50:00,29.3,24.4,30.12,NNW,338,0.0,0.0,81,0.00,,,0.00,WUHU216HW,2013-02-10 10:50:00,
2013-02-10 05:51:00,45.5,24.1,29.91,NE,45,0.0,0.0,43,0.00,,,0.00,WUHU216HW,2013-02-10 10:51:00,
2013-02-10 05:52:00,45.5,24.1,29.91,ENE,68,0.0,0.0,42,0.00,,,0.00,WUHU216HW,2013-02-10 10:52:00,
2013-02-10 05:55:00,29.3,24.4,30.12,NNW,338,0.0,0.0,81,0.00,,,0.00,WUHU216HW,2013-02-10 10:55:00,
2013-02-10 06:00:00,29.4,24.3,30.13,NNW,338,0.0,0.0,81,0.00,,,0.00,WUHU216HW,2013-02-10 11:00:00,
2013-02-10 06:05:00,29.4,24.3,30.12,NNW,338,0.0,0.0,81,0.00,,,0.00,WUHU216HW,2013-02-10 11:05:00,
2013-02-10 06:10:00,29.4,24.3,30.12,NNW,338,0.0,0.0,81,0.00,,,0.00,WUHU216HW,2013-02-10 11:10:00,
2013-02-10 06:15:00,29.4,24.3,30.12,NNW,338,0.0,0.0,81,0.00,,,0.00,WUHU216HW,2013-02-10 11:15:00,
2013-02-10 06:20:00,29.4,24.3,30.13,NNW,338,0.0,0.0,81,0.00,,,0.00,WUHU216HW,2013-02-10 11:20:00,
2013-02-10 06:25:00,29.4,24.3,30.13,NNW,338,0.0,0.0,80,0.00,,,0.00,WUHU216HW,2013-02-10 11:25:00,
2013-02-10 06:30:00,29.4,24.3,30.13,NNW,338,0.0,0.0,80,0.00,,,0.00,WUHU216HW,2013-02-10 11:30:00,
2013-02-10 06:31:00,45.1,23.8,29.92,ENE,68,0.0,0.0,43,0.00,,,0.00,WUHU216HW,2013-02-10 11:31:00,
2013-02-10 06:32:00,45.1,23.8,29.92,ENE,68,0.0,0.0,43,0.00,,,0.00,WUHU216HW,2013-02-10 11:32:00,
2013-02-10 06:33:00,44.9,23.6,29.92,NE,45,0.0,0.0,43,0.00,,,0.00,WUHU216HW,2013-02-10 11:33:00,
2013-02-10 06:34:00,44.9,23.6,29.92,NE,45,0.0,0.0,43,0.00,,,0.00,WUHU216HW,2013-02-10 11:34:00,
2013-02-10 06:35:00,29.3,23.9,30.12,NNW,338,0.0,0.0,80,0.00,,,0.00,WUHU216HW,2013-02-10 11:35:00,
2013-02-10 06:36:00,45.1,23.8,29.92,NE,45,0.0,0.0,43,0.00,,,0.00,WUHU216HW,2013-02-10 11:36:00,
2013-02-10 06:37:00,45.1,23.8,29.92,ESE,113,0.0,0.0,43,0.00,,,0.00,WUHU216HW,2013-02-10 11:37:00,
2013-02-10 06:38:00,45.1,23.8,29.92,ESE,113,0.0,0.0,43,0.00,,,0.00,WUHU216HW,2013-02-10 11:38:00,
2013-02-10 06:39:00,45.1,23.8,29.92,ENE,68,0.0,0.0,43,0.00,,,0.00,WUHU216HW,2013-02-10 11:39:00,
2013-02-10 06:40:00,29.3,23.9,30.13,NNW,338,0.0,0.0,80,0.00,,,0.00,WUHU216HW,2013-02-10 11:40:00,
2013-02-10 06:41:00,44.9,23.6,29.93,ENE,68,0.0,0.0,43,0.00,,,0.00,WUHU216HW,2013-02-10 11:41:00,
2013-02-10 06:42:00,44.9,23.6,29.93,ENE,68,0.0,0.0,43,0.00,,,0.00,WUHU216HW,2013-02-10 11:42:00,
2013-02-10 06:43:00,44.9,23.6,29.93,ENE,68,0.0,0.0,43,0.00,,,0.00,WUHU216HW,2013-02-10 11:43:00,
2013-02-10 06:45:00,29.4,24.0,30.13,NNW,338,0.0,0.0,80,0.00,,,0.00,WUHU216HW,2013-02-10 11:45:00,
2013-02-10 06:50:00,29.4,24.0,30.13,NNW,338,0.0,0.0,80,0.00,,,0.00,WUHU216HW,2013-02-10 11:50:00,
2013-02-10 06:55:00,29.4,24.0,30.13,NNW,338,0.0,0.0,80,0.00,,,0.00,WUHU216HW,2013-02-10 11:55:00,
2013-02-10 07:00:00,29.4,24.0,30.14,NNW,338,0.0,0.0,79,0.00,,,0.00,WUHU216HW,2013-02-10 12:00:00,
2013-02-10 07:05:00,29.4,24.0,30.15,NNW,338,0.0,0.0,80,0.00,,,0.00,WUHU216HW,2013-02-10 12:05:00,
2013-02-10 07:10:00,29.4,24.0,30.15,NNW,338,0.0,0.0,80,0.00,,,0.00,WUHU216HW,2013-02-10 12:10:00,
2013-02-10 07:15:00,29.4,24.0,30.15,NNW,338,0.0,0.0,80,0.00,,,0.00,WUHU216HW,2013-02-10 12:15:00,
2013-02-10 07:20:00,29.4,24.0,30.15,NNW,338,0.0,0.0,80,0.00,,,0.00,WUHU216HW,2013-02-10 12:20:00,
2013-02-10 07:24:00,44.7,24.0,29.95,NE,45,0.0,0.0,44,0.00,,,0.00,WUHU216HW,2013-02-10 12:24:00,
2013-02-10 07:25:00,29.4,24.0,30.16,NNW,338,0.0,0.0,80,0.00,,,0.00,WUHU216HW,2013-02-10 12:25:00,
2013-02-10 07:26:00,44.7,24.0,29.95,NE,45,0.0,0.0,44,0.00,,,0.00,WUHU216HW,2013-02-10 12:26:00,
2013-02-10 07:27:00,44.7,24.0,29.95,NE,45,0.0,0.0,44,0.00,,,0.00,WUHU216HW,2013-02-10 12:27:00,
2013-02-10 07:28:00,44.7,24.0,29.95,NE,45,0.0,0.0,44,0.00,,,0.00,WUHU216HW,2013-02-10 12:28:00,
2013-02-10 07:29:00,44.7,24.0,29.95,NE,45,0.0,0.0,45,0.00,,,0.00,WUHU216HW,2013-02-10 12:29:00,
2013-02-10 07:30:00,29.4,24.0,30.16,NNW,338,0.0,0.0,80,0.00,,,0.00,WUHU216HW,2013-02-10 12:30:00,
2013-02-10 07:31:00,44.7,24.0,29.95,NE,45,0.0,0.0,44,0.00,,,0.00,WUHU216HW,2013-02-10 12:31:00,
2013-02-10 07:32:00,44.7,24.0,29.95,NE,45,0.0,0.0,44,0.00,,,0.00,WUHU216HW,2013-02-10 12:32:00,
2013-02-10 07:33:00,44.7,24.0,29.94,ENE,68,0.0,0.0,45,0.00,,,0.00,WUHU216HW,2013-02-10 12:33:00,
2013-02-10 07:34:00,44.7,24.0,29.94,ENE,68,0.0,0.0,45,0.00,,,0.00,WUHU216HW,2013-02-10 12:34:00,
2013-02-10 07:35:00,29.8,24.1,30.17,NNW,338,0.0,0.0,79,0.00,,,0.00,WUHU216HW,2013-02-10 12:35:00,
2013-02-10 07:40:00,30.0,24.2,30.17,NNW,338,0.0,0.0,79,0.00,,,0.00,WUHU216HW,2013-02-10 12:40:00,
2013-02-10 07:45:00,29.8,24.1,30.17,NNW,338,0.0,0.0,79,0.00,,,0.00,WUHU216HW,2013-02-10 12:45:00,
2013-02-10 07:50:00,30.0,23.9,30.16,NNW,338,0.0,0.0,78,0.00,,,0.00,WUHU216HW,2013-02-10 12:50:00,
2013-02-10 07:55:00,30.0,23.9,30.16,NNW,338,0.0,0.0,78,0.00,,,0.00,WUHU216HW,2013-02-10 12:55:00,
2013-02-10 08:00:00,30.3,24.3,30.16,NNW,338,0.0,0.0,78,0.00,,,0.00,WUHU216HW,2013-02-10 13:00:00,
2013-02-10 08:05:00,30.7,24.6,30.16,NNW,338,0.0,0.0,78,0.00,,,0.00,WUHU216HW,2013-02-10 13:05:00,
2013-02-10 08:10:00,31.2,25.5,30.17,NNW,338,0.0,0.0,79,0.00,,,0.00,WUHU216HW,2013-02-10 13:10:00,
2013-02-10 08:15:00,31.4,25.4,30.17,NNW,338,0.0,0.0,78,0.00,,,0.00,WUHU216HW,2013-02-10 13:15:00,
2013-02-10 08:20:00,32.1,25.1,30.18,NNW,338,0.0,0.0,75,0.00,,,0.00,WUHU216HW,2013-02-10 13:20:00,
2013-02-10 08:21:00,43.7,24.1,29.94,NE,45,0.4,5.3,46,0.00,,,0.00,WUHU216HW,2013-02-10 13:21:00,
2013-02-10 08:22:00,43.7,24.1,29.94,NE,45,0.4,5.3,46,0.00,,,0.00,WUHU216HW,2013-02-10 13:22:00,
2013-02-10 08:23:00,43.7,24.1,29.94,NE,45,0.4,5.3,46,0.00,,,0.00,WUHU216HW,2013-02-10 13:23:00,
2013-02-10 08:24:00,43.7,24.1,29.94,NE,45,0.4,5.3,46,0.00,,,0.00,WUHU216HW,2013-02-10 13:24:00,
2013-02-10 08:25:00,32.7,25.3,30.18,NNW,338,0.0,0.0,74,0.00,,,0.00,WUHU216HW,2013-02-10 13:25:00,
2013-02-10 08:26:00,43.7,24.1,29.94,NE,45,0.4,5.3,46,0.00,,,0.00,WUHU216HW,2013-02-10 13:26:00,
2013-02-10 08:27:00,43.7,24.1,29.94,NE,45,0.4,5.3,46,0.00,,,0.00,WUHU216HW,2013-02-10 13:27:00,
2013-02-10 08:28:00,43.7,24.1,29.94,NE,45,0.4,5.3,46,0.00,,,0.00,WUHU216HW,2013-02-10 13:28:00,
2013-02-10 08:29:00,43.7,24.1,29.94,NE,45,0.4,0.4,46,0.00,,,0.00,WUHU216HW,2013-02-10 13:29:00,
2013-02-10 08:30:00,33.0,25.3,30.18,NNW,338,0.0,0.0,73,0.00,,,0.00,WUHU216HW,2013-02-10 13:30:00,
2013-02-10 08:31:00,43.7,24.1,29.94,NE,45,0.4,0.4,46,0.00,,,0.00,WUHU216HW,2013-02-10 13:31:00,
2013-02-10 08:32:00,43.5,24.0,29.94,ENE,68,0.0,0.4,46,0.00,,,0.00,WUHU216HW,2013-02-10 13:32:00,
2013-02-10 08:33:00,43.5,24.0,29.95,ENE,68,0.0,0.4,46,0.00,,,0.00,WUHU216HW,2013-02-10 13:33:00,
2013-02-10 08:34:00,43.5,24.0,29.95,ENE,68,0.0,0.4,46,0.00,,,0.00,WUHU216HW,2013-02-10 13:34:00,
2013-02-10 08:35:00,33.4,24.9,30.18,North,0,0.0,0.0,71,0.00,,,0.00,WUHU216HW,2013-02-10 13:35:00,
2013-02-10 08:36:00,43.5,24.0,29.95,ENE,68,0.0,0.4,46,0.00,,,0.00,WUHU216HW,2013-02-10 13:36:00,
2013-02-10 08:37:00,43.5,24.0,29.95,ENE,68,0.0,0.4,46,0.00,,,0.00,WUHU216HW,2013-02-10 13:37:00,
2013-02-10 08:38:00,43.5,24.0,29.95,ENE,68,0.0,0.4,46,0.00,,,0.00,WUHU216HW,2013-02-10 13:38:00,
2013-02-10 08:39:00,43.5,24.0,29.95,ENE,68,0.0,0.4,46,0.00,,,0.00,WUHU216HW,2013-02-10 13:39:00,
2013-02-10 08:40:00,33.9,25.1,30.18,North,0,0.0,0.0,70,0.00,,,0.00,WUHU216HW,2013-02-10 13:40:00,
2013-02-10 08:41:00,43.5,24.0,29.96,ENE,68,0.0,0.4,46,0.00,,,0.00,WUHU216HW,2013-02-10 13:41:00,
2013-02-10 08:42:00,43.5,24.0,29.97,ENE,68,0.0,0.0,46,0.00,,,0.00,WUHU216HW,2013-02-10 13:42:00,
2013-02-10 08:43:00,43.5,24.0,29.97,NE,45,0.0,0.0,46,0.00,,,0.00,WUHU216HW,2013-02-10 13:43:00,
2013-02-10 08:44:00,43.5,24.0,29.97,NE,45,0.0,0.0,46,0.00,,,0.00,WUHU216HW,2013-02-10 13:44:00,
2013-02-10 08:45:00,34.5,25.3,30.18,NE,45,0.0,0.0,69,0.00,,,0.00,WUHU216HW,2013-02-10 13:45:00,
2013-02-10 08:46:00,43.5,24.0,29.97,ENE,68,0.0,0.0,46,0.00,,,0.00,WUHU216HW,2013-02-10 13:46:00,
2013-02-10 08:47:00,43.5,24.0,29.98,NE,45,0.0,0.0,46,0.00,,,0.00,WUHU216HW,2013-02-10 13:47:00,
2013-02-10 08:50:00,34.7,24.8,30.18,NE,45,0.0,0.0,67,0.00,,,0.00,WUHU216HW,2013-02-10 13:50:00,
2013-02-10 08:55:00,35.2,25.3,30.18,NE,45,0.0,0.0,67,0.00,,,0.00,WUHU216HW,2013-02-10 13:55:00,
2013-02-10 09:00:00,35.2,25.3,30.18,NE,45,0.0,0.0,66,0.00,,,0.00,WUHU216HW,2013-02-10 14:00:00,
2013-02-10 09:06:00,35.6,25.3,30.18,NE,45,0.0,0.0,66,0.00,,,0.00,WUHU216HW,2013-02-10 14:06:00,
2013-02-10 09:11:00,35.7,25.5,30.18,NE,45,0.0,0.0,66,0.00,,,0.00,WUHU216HW,2013-02-10 14:11:00,
2013-02-10 09:16:00,35.9,25.6,30.18,NE,45,0.0,0.0,66,0.00,,,0.00,WUHU216HW,2013-02-10 14:16:00,
2013-02-10 09:21:00,36.5,26.2,30.19,NE,45,0.0,0.0,66,0.00,,,0.00,WUHU216HW,2013-02-10 14:21:00,
2013-02-10 09:26:00,36.6,26.0,30.19,NE,45,0.0,0.0,65,0.00,,,0.00,WUHU216HW,2013-02-10 14:26:00,
2013-02-10 09:31:00,37.0,26.3,30.18,NE,45,0.0,0.0,65,0.00,,,0.00,WUHU216HW,2013-02-10 14:31:00,
2013-02-10 09:33:00,43.3,24.3,30.05,NE,45,0.0,0.0,49,0.00,,,0.00,WUHU216HW,2013-02-10 14:33:00,
2013-02-10 09:34:00,43.3,24.3,30.05,NE,45,0.0,0.0,49,0.00,,,0.00,WUHU216HW,2013-02-10 14:34:00,
2013-02-10 09:36:00,37.7,23.8,30.19,SSE,158,0.0,0.0,57,0.00,,,0.00,WUHU216HW,2013-02-10 14:36:00,
2013-02-10 09:37:00,42.9,25.6,30.05,NE,45,0.0,0.0,50,0.00,,,0.00,WUHU216HW,2013-02-10 14:37:00,
2013-02-10 09:38:00,42.9,25.6,30.05,NE,45,0.0,0.0,50,0.00,,,0.00,WUHU216HW,2013-02-10 14:38:00,
2013-02-10 09:40:00,42.9,25.6,30.05,NE,45,0.0,0.0,51,0.00,,,0.00,WUHU216HW,2013-02-10 14:40:00,
2013-02-10 09:41:00,38.1,23.7,30.18,SE,135,0.0,0.0,54,0.00,,,0.00,WUHU216HW,2013-02-10 14:41:00,
2013-02-10 09:42:00,42.9,25.6,30.06,NE,45,0.0,0.0,51,0.00,,,0.00,WUHU216HW,2013-02-10 14:42:00,
2013-02-10 09:46:00,38.1,23.7,30.18,ESE,113,0.0,0.0,53,0.00,,,0.00,WUHU216HW,2013-02-10 14:46:00,
2013-02-10 09:47:00,42.9,25.6,30.05,NE,45,0.0,0.0,51,0.00,,,0.00,WUHU216HW,2013-02-10 14:47:00,
2013-02-10 09:48:00,42.9,25.6,30.06,NE,45,0.0,0.0,50,0.00,,,0.00,WUHU216HW,2013-02-10 14:48:00,
2013-02-10 09:50:00,42.9,25.6,30.06,NE,45,0.0,0.0,51,0.00,,,0.00,WUHU216HW,2013-02-10 14:50:00,
2013-02-10 09:51:00,38.3,22.5,30.18,NE,45,0.0,0.0,53,0.00,,,0.00,WUHU216HW,2013-02-10 14:51:00,
2013-02-10 09:52:00,42.9,25.6,30.06,NE,45,0.0,0.0,53,0.00,,,0.00,WUHU216HW,2013-02-10 14:52:00,
2013-02-10 09:53:00,42.9,25.6,30.06,NE,45,0.0,0.0,53,0.00,,,0.00,WUHU216HW,2013-02-10 14:53:00,
2013-02-10 09:56:00,38.8,23.0,30.18,NE,45,0.0,0.0,53,0.00,,,0.00,WUHU216HW,2013-02-10 14:56:00,
2013-02-10 10:01:00,39.0,22.8,30.19,South,180,0.0,0.0,52,0.00,,,0.00,WUHU216HW,2013-02-10 15:01:00,
2013-02-10 10:07:00,39.3,23.1,30.20,South,180,0.0,0.0,52,0.00,,,0.00,WUHU216HW,2013-02-10 15:07:00,
2013-02-10 10:12:00,39.3,23.1,30.18,South,180,0.0,0.0,51,0.00,,,0.00,WUHU216HW,2013-02-10 15:12:00,
2013-02-10 10:17:00,39.5,22.4,30.18,South,180,0.0,0.0,50,0.00,,,0.00,WUHU216HW,2013-02-10 15:17:00,
2013-02-10 10:22:00,39.7,22.0,30.17,ESE,113,0.0,0.0,48,0.00,,,0.00,WUHU216HW,2013-02-10 15:22:00,
2013-02-10 10:27:00,39.7,22.0,30.18,ENE,68,0.0,0.0,50,0.00,,,0.00,WUHU216HW,2013-02-10 15:27:00,
2013-02-10 10:32:00,39.9,23.1,30.18,NE,45,0.0,1.1,52,0.00,,,0.00,WUHU216HW,2013-02-10 15:32:00,
2013-02-10 10:37:00,40.2,23.5,30.18,ENE,68,0.0,1.1,51,0.00,,,0.00,WUHU216HW,2013-02-10 15:37:00,
2013-02-10 10:40:00,41.7,27.5,30.01,NE,45,0.0,0.0,58,0.00,,,0.00,WUHU216HW,2013-02-10 15:40:00,
2013-02-10 10:42:00,40.6,23.8,30.18,NE,45,0.0,0.0,51,0.00,,,0.00,WUHU216HW,2013-02-10 15:42:00,
2013-02-10 10:43:00,41.3,28.5,30.01,NE,45,0.0,0.0,60,0.00,,,0.00,WUHU216HW,2013-02-10 15:43:00,
2013-02-10 10:44:00,41.3,28.5,30.01,NE,45,0.0,0.0,60,0.00,,,0.00,WUHU216HW,2013-02-10 15:44:00,
2013-02-10 10:46:00,41.1,28.7,30.01,NE,45,0.0,0.0,61,0.00,,,0.00,WUHU216HW,2013-02-10 15:46:00,
2013-02-10 10:47:00,40.8,23.0,30.18,ENE,68,0.0,0.0,48,0.00,,,0.00,WUHU216HW,2013-02-10 15:47:00,
2013-02-10 10:48:00,41.0,28.6,30.02,NE,45,0.0,0.0,61,0.00,,,0.00,WUHU216HW,2013-02-10 15:48:00,
2013-02-10 10:49:00,41.0,28.6,30.01,NE,45,0.0,0.0,61,0.00,,,0.00,WUHU216HW,2013-02-10 15:49:00,
2013-02-10 10:50:00,40.8,29.9,30.01,NE,45,0.0,0.0,65,0.00,,,0.00,WUHU216HW,2013-02-10 15:50:00,
2013-02-10 10:51:00,40.6,29.7,30.02,NE,45,0.0,0.0,65,0.00,,,0.00,WUHU216HW,2013-02-10 15:51:00,
2013-02-10 10:52:00,41.1,22.3,30.19,ENE,68,0.0,0.0,49,0.00,,,0.00,WUHU216HW,2013-02-10 15:52:00,
2013-02-10 10:54:00,40.4,29.5,30.01,NE,45,0.0,0.0,65,0.02,,,0.02,WUHU216HW,2013-02-10 15:54:00,
2013-02-10 10:55:00,40.4,29.5,30.01,NE,45,0.0,0.0,65,0.02,,,0.02,WUHU216HW,2013-02-10 15:55:00,
2013-02-10 10:57:00,41.5,23.7,30.19,ENE,68,0.0,0.0,49,0.00,,,0.00,WUHU216HW,2013-02-10 15:57:00,
2013-02-10 11:02:00,42.0,23.2,30.20,ESE,113,0.0,0.0,47,0.00,,,0.00,WUHU216HW,2013-02-10 16:02:00,
2013-02-10 11:07:00,42.4,24.6,30.19,ESE,113,0.0,0.0,49,0.00,,,0.00,WUHU216HW,2013-02-10 16:07:00,
2013-02-10 11:12:00,43.1,24.2,30.19,ESE,113,0.0,0.0,45,0.00,,,0.00,WUHU216HW,2013-02-10 16:12:00,
2013-02-10 11:17:00,43.5,24.0,30.19,ESE,113,0.0,0.0,46,0.00,,,0.00,WUHU216HW,2013-02-10 16:17:00,
2013-02-10 11:22:00,44.4,24.8,30.19,ESE,113,0.0,0.0,46,0.00,,,0.00,WUHU216HW,2013-02-10 16:22:00,
2013-02-10 11:28:00,44.9,24.2,30.17,South,180,0.0,0.0,43,0.00,,,0.00,WUHU216HW,2013-02-10 16:28:00,
2013-02-10 11:31:00,38.1,31.2,30.02,NE,45,0.0,0.0,76,0.06,,,0.06,WUHU216HW,2013-02-10 16:31:00,
2013-02-10 11:32:00,38.1,31.2,30.02,NE,45,0.0,0.0,76,0.06,,,0.06,WUHU216HW,2013-02-10 16:32:00,
2013-02-10 11:33:00,45.5,23.6,30.17,SSE,158,0.0,0.0,42,0.00,,,0.00,WUHU216HW,2013-02-10 16:33:00,
2013-02-10 11:34:00,38.1,31.2,30.02,NE,45,0.0,0.0,77,0.06,,,0.06,WUHU216HW,2013-02-10 16:34:00,
2013-02-10 11:35:00,37.9,31.3,30.02,NE,45,0.0,0.0,77,0.06,,,0.06,WUHU216HW,2013-02-10 16:35:00,
2013-02-10 11:38:00,45.8,23.9,30.17,SSW,203,0.0,0.0,42,0.00,,,0.00,WUHU216HW,2013-02-10 16:38:00,
2013-02-10 11:39:00,37.9,31.3,30.03,NE,45,0.0,0.0,77,0.08,,,0.08,WUHU216HW,2013-02-10 16:39:00,
2013-02-10 11:40:00,37.9,31.3,30.03,NE,45,0.0,0.0,77,0.08,,,0.08,WUHU216HW,2013-02-10 16:40:00,
2013-02-10 11:41:00,37.9,31.3,30.03,NE,45,0.0,0.0,77,0.08,,,0.08,WUHU216HW,2013-02-10 16:41:00,
2013-02-10 11:42:00,37.9,31.3,30.03,NE,45,0.0,0.0,77,0.08,,,0.08,WUHU216HW,2013-02-10 16:42:00,
2013-02-10 11:43:00,46.9,23.8,30.17,SE,135,0.0,0.0,40,0.00,,,0.00,WUHU216HW,2013-02-10 16:43:00,
2013-02-10 11:45:00,37.9,31.3,30.03,NE,45,0.0,0.0,77,0.08,,,0.08,WUHU216HW,2013-02-10 16:45:00,
2013-02-10 11:46:00,37.9,31.3,30.03,NE,45,0.0,0.0,77,0.08,,,0.08,WUHU216HW,2013-02-10 16:46:00,
2013-02-10 11:47:00,37.9,31.3,30.03,NE,45,0.0,0.0,77,0.08,,,0.08,WUHU216HW,2013-02-10 16:47:00,
2013-02-10 11:48:00,47.3,25.7,30.16,ESE,113,0.0,0.0,43,0.00,,,0.00,WUHU216HW,2013-02-10 16:48:00,
2013-02-10 11:53:00,47.1,24.0,30.16,WSW,248,0.0,0.0,40,0.00,,,0.00,WUHU216HW,2013-02-10 16:53:00,
2013-02-10 11:58:00,49.4,27.7,30.16,ENE,68,0.0,0.0,43,0.00,,,0.00,WUHU216HW,2013-02-10 16:58:00,
2013-02-10 12:03:00,48.9,24.9,30.17,ESE,113,0.0,0.0,39,0.00,,,0.00,WUHU216HW,2013-02-10 17:03:00,
2013-02-10 12:08:00,49.8,28.1,30.16,East,90,0.0,0.0,43,0.00,,,0.00,WUHU216HW,2013-02-10 17:08:00,
2013-02-10 12:13:00,50.5,28.2,30.15,South,180,0.0,0.0,39,0.00,,,0.00,WUHU216HW,2013-02-10 17:13:00,
2013-02-10 12:18:00,51.0,28.1,30.15,NE,45,0.0,0.0,41,0.00,,,0.00,WUHU216HW,2013-02-10 17:18:00,
2013-02-10 12:23:00,52.5,30.5,30.15,SSE,158,0.0,0.0,37,0.00,,,0.00,WUHU216HW,2013-02-10 17:23:00,
2013-02-10 12:29:00,52.3,28.0,30.14,SSE,158,0.0,0.0,38,0.00,,,0.00,WUHU216HW,2013-02-10 17:29:00,
2013-02-10 12:34:00,52.5,27.5,30.14,South,180,0.0,0.0,38,0.00,,,0.00,WUHU216HW,2013-02-10 17:34:00,
2013-02-10 12:39:00,54.1,29.6,30.13,SE,135,0.0,0.0,37,0.00,,,0.00,WUHU216HW,2013-02-10 17:39:00,
2013-02-10 12:44:00,55.2,29.1,30.13,South,180,0.0,0.0,37,0.00,,,0.00,WUHU216HW,2013-02-10 17:44:00,
2013-02-10 12:49:00,54.6,28.7,30.13,South,180,0.0,0.0,37,0.00,,,0.00,WUHU216HW,2013-02-10 17:49:00,
2013-02-10 12:54:00,55.2,29.8,30.12,East,90,0.0,0.0,37,0.00,,,0.00,WUHU216HW,2013-02-10 17:54:00,
2013-02-10 12:59:00,55.0,26.9,30.12,SSW,203,0.0,0.0,34,0.00,,,0.00,WUHU216HW,2013-02-10 17:59:00,
2013-02-10 13:04:00,55.0,26.2,30.12,SE,135,0.0,0.0,33,0.00,,,0.00,WUHU216HW,2013-02-10 18:04:00,
2013-02-10 13:06:00,35.4,30.7,29.98,NE,45,1.7,1.7,83,0.10,,,0.20,WUHU216HW,2013-02-10 18:06:00,
2013-02-10 13:07:00,35.4,30.7,29.98,West,270,0.0,1.7,83,0.10,,,0.20,WUHU216HW,2013-02-10 18:07:00,
2013-02-10 13:09:00,54.6,28.0,30.12,SSE,158,0.0,0.0,36,0.00,,,0.00,WUHU216HW,2013-02-10 18:09:00,
2013-02-10 13:10:00,35.2,30.5,29.98,ENE,68,0.6,8.5,83,0.10,,,0.20,WUHU216HW,2013-02-10 18:10:00,
2013-02-10 13:11:00,35.2,30.5,29.98,ENE,68,0.6,8.5,83,0.10,,,0.20,WUHU216HW,2013-02-10 18:11:00,
2013-02-10 13:12:00,35.2,30.5,29.98,NE,45,4.9,8.5,83,0.10,,,0.20,WUHU216HW,2013-02-10 18:12:00,
2013-02-10 13:13:00,35.2,30.5,29.98,NE,45,4.9,8.5,83,0.10,,,0.20,WUHU216HW,2013-02-10 18:13:00,
2013-02-10 13:14:00,54.6,27.3,30.11,South,180,0.0,6.4,35,0.00,,,0.00,WUHU216HW,2013-02-10 18:14:00,
2013-02-10 13:15:00,35.2,30.5,29.98,ENE,68,0.0,8.5,83,0.10,,,0.20,WUHU216HW,2013-02-10 18:15:00,
2013-02-10 13:17:00,35.2,30.5,29.98,NE,45,0.0,8.5,83,0.10,,,0.20,WUHU216HW,2013-02-10 18:17:00,
2013-02-10 13:18:00,35.2,30.5,29.98,NE,45,0.0,8.5,83,0.10,,,0.20,WUHU216HW,2013-02-10 18:18:00,
2013-02-10 13:19:00,53.9,26.0,30.11,SSE,158,0.0,6.4,34,0.00,,,0.00,WUHU216HW,2013-02-10 18:19:00,
2013-02-10 13:20:00,35.2,30.5,29.98,NE,45,3.8,4.9,83,0.10,,,0.20,WUHU216HW,2013-02-10 18:20:00,
2013-02-10 13:24:00,54.6,26.6,30.10,SSE,158,0.0,0.0,34,0.00,,,0.00,WUHU216HW,2013-02-10 18:24:00,
2013-02-10 13:29:00,53.9,26.0,30.10,SSE,158,0.0,0.0,34,0.00,,,0.00,WUHU216HW,2013-02-10 18:29:00,
2013-02-10 13:34:00,54.5,27.8,30.10,SE,135,0.0,0.8,36,0.00,,,0.00,WUHU216HW,2013-02-10 18:34:00,
2013-02-10 13:39:00,54.1,24.8,30.09,SSE,158,0.0,2.6,32,0.00,,,0.00,WUHU216HW,2013-02-10 18:39:00,
2013-02-10 13:44:00,54.1,26.1,30.08,SSE,158,0.0,2.6,34,0.00,,,0.00,WUHU216HW,2013-02-10 18:44:00,
2013-02-10 13:49:00,55.2,29.1,30.08,SSE,158,0.0,0.0,32,0.00,,,0.00,WUHU216HW,2013-02-10 18:49:00,
2013-02-10 13:54:00,53.7,24.5,30.08,SSW,203,0.0,5.8,32,0.00,,,0.00,WUHU216HW,2013-02-10 18:54:00,
2013-02-10 13:59:00,54.6,26.6,30.08,SW,225,0.0,5.8,34,0.00,,,0.00,WUHU216HW,2013-02-10 18:59:00,
2013-02-10 14:05:00,54.3,25.6,30.08,SE,135,0.0,1.3,33,0.00,,,0.00,WUHU216HW,2013-02-10 19:05:00,
2013-02-10 14:10:00,54.3,25.6,30.08,WSW,248,0.0,1.3,33,0.00,,,0.00,WUHU216HW,2013-02-10 19:10:00,
2013-02-10 14:15:00,54.5,25.8,30.08,SW,225,0.0,0.0,33,0.00,,,0.00,WUHU216HW,2013-02-10 19:15:00,
2013-02-10 14:20:00,54.1,24.8,30.08,South,180,4.2,6.7,32,0.00,,,0.00,WUHU216HW,2013-02-10 19:20:00,
2013-02-10 14:25:00,54.1,24.8,30.08,East,90,0.0,6.7,32,0.00,,,0.00,WUHU216HW,2013-02-10 19:25:00,
2013-02-10 14:30:00,55.0,25.5,30.08,South,180,0.0,5.5,32,0.00,,,0.00,WUHU216HW,2013-02-10 19:30:00,
2013-02-10 14:35:00,55.5,26.7,30.07,South,180,0.0,0.0,31,0.00,,,0.00,WUHU216HW,2013-02-10 19:35:00,
2013-02-10 14:40:00,55.2,25.6,30.06,WSW,248,0.0,0.0,32,0.00,,,0.00,WUHU216HW,2013-02-10 19:40:00,
2013-02-10 14:45:00,55.5,26.7,30.06,SSE,158,1.1,1.1,33,0.00,,,0.00,WUHU216HW,2013-02-10 19:45:00,
2013-02-10 14:50:00,55.7,26.8,30.05,SSE,158,0.0,1.1,33,0.00,,,0.00,WUHU216HW,2013-02-10 19:50:00,
2013-02-10 14:55:00,55.2,25.6,30.05,SSW,203,0.0,4.9,32,0.00,,,0.00,WUHU216HW,2013-02-10 19:55:00,
2013-02-10 15:00:00,54.3,24.9,30.05,East,90,4.0,4.9,32,0.00,,,0.00,WUHU216HW,2013-02-10 20:00:00,
2013-02-10 15:05:00,54.1,24.8,30.04,South,180,0.0,4.0,32,0.00,,,0.00,WUHU216HW,2013-02-10 20:05:00,
2013-02-10 15:10:00,53.2,24.7,30.04,SSW,203,0.0,4.0,33,0.00,,,0.00,WUHU216HW,2013-02-10 20:10:00,
2013-02-10 15:15:00,53.2,24.7,30.04,WSW,248,0.0,3.8,33,0.00,,,0.00,WUHU216HW,2013-02-10 20:15:00,
2013-02-10 15:20:00,52.8,24.4,30.04,SSE,158,0.0,0.0,33,0.00,,,0.00,WUHU216HW,2013-02-10 20:20:00,
2013-02-10 15:25:00,52.7,24.9,30.04,SSE,158,0.0,0.0,34,0.00,,,0.00,WUHU216HW,2013-02-10 20:25:00,
2013-02-10 15:30:00,52.5,24.0,30.04,SSE,158,0.0,0.0,33,0.00,,,0.00,WUHU216HW,2013-02-10 20:30:00,
2013-02-10 15:35:00,52.5,24.0,30.04,South,180,0.0,0.0,33,0.00,,,0.00,WUHU216HW,2013-02-10 20:35:00,
2013-02-10 15:40:00,52.5,24.0,30.03,SSE,158,0.0,0.0,33,0.00,,,0.00,WUHU216HW,2013-02-10 20:40:00,
2013-02-10 15:45:00,52.3,23.9,30.04,SSE,158,3.1,3.1,33,0.00,,,0.00,WUHU216HW,2013-02-10 20:45:00,
2013-02-10 15:47:00,34.1,30.0,30.01,East,90,0.0,0.0,85,0.02,,,0.25,WUHU216HW,2013-02-10 20:47:00,
2013-02-10 15:48:00,34.3,30.2,30.01,ENE,68,0.0,0.0,85,0.02,,,0.25,WUHU216HW,2013-02-10 20:48:00,
2013-02-10 15:49:00,34.3,30.2,30.01,ENE,68,0.0,0.0,85,0.02,,,0.25,WUHU216HW,2013-02-10 20:49:00,
2013-02-10 15:50:00,52.7,25.6,30.03,SSE,158,0.0,3.1,35,0.00,,,0.00,WUHU216HW,2013-02-10 20:50:00,
2013-02-10 15:51:00,34.1,30.0,30.01,ENE,68,0.0,0.0,85,0.02,,,0.25,WUHU216HW,2013-02-10 20:51:00,
2013-02-10 15:52:00,34.1,30.0,30.01,ENE,68,0.0,0.0,85,0.02,,,0.25,WUHU216HW,2013-02-10 20:52:00,
2013-02-10 15:53:00,34.1,30.0,30.01,ENE,68,0.0,0.0,85,0.02,,,0.25,WUHU216HW,2013-02-10 20:53:00,
2013-02-10 15:54:00,34.1,30.0,30.01,ENE,68,0.0,0.0,85,0.02,,,0.25,WUHU216HW,2013-02-10 20:54:00,
2013-02-10 15:55:00,34.3,30.2,30.01,ENE,68,0.0,0.0,85,0.02,,,0.25,WUHU216HW,2013-02-10 20:55:00,
2013-02-10 15:56:00,53.2,25.4,30.03,SSE,158,0.0,3.5,34,0.00,,,0.00,WUHU216HW,2013-02-10 20:56:00,
2013-02-10 15:57:00,34.5,30.3,30.01,ENE,68,0.0,0.0,85,0.02,,,0.25,WUHU216HW,2013-02-10 20:57:00,
2013-02-10 15:58:00,34.5,30.3,30.02,ENE,68,0.0,0.0,85,0.02,,,0.25,WUHU216HW,2013-02-10 20:58:00,
2013-02-10 16:01:00,53.4,24.8,30.03,SSE,158,1.5,3.5,33,0.00,,,0.00,WUHU216HW,2013-02-10 21:01:00,
2013-02-10 16:02:00,34.3,30.2,30.02,ENE,68,0.0,0.0,85,0.02,,,0.25,WUHU216HW,2013-02-10 21:02:00,
2013-02-10 16:03:00,34.3,30.2,30.02,ENE,68,0.0,0.0,85,0.02,,,0.25,WUHU216HW,2013-02-10 21:03:00,
2013-02-10 16:04:00,34.5,30.3,30.02,ENE,68,0.0,0.0,85,0.02,,,0.25,WUHU216HW,2013-02-10 21:04:00,
2013-02-10 16:06:00,53.2,24.7,30.03,East,90,0.0,2.9,35,0.00,,,0.00,WUHU216HW,2013-02-10 21:06:00,
2013-02-10 16:11:00,53.2,24.7,30.04,SSE,158,0.0,1.5,33,0.00,,,0.00,WUHU216HW,2013-02-10 21:11:00,
2013-02-10 16:16:00,53.2,24.7,30.03,SSE,158,0.0,0.0,33,0.00,,,0.00,WUHU216HW,2013-02-10 21:16:00,
2013-02-10 16:21:00,53.2,24.7,30.03,SE,135,2.6,2.6,33,0.00,,,0.00,WUHU216HW,2013-02-10 21:21:00,
2013-02-10 16:26:00,53.2,24.7,30.04,SE,135,0.0,2.6,33,0.00,,,0.00,WUHU216HW,2013-02-10 21:26:00,
2013-02-10 16:31:00,53.2,24.7,30.03,SSE,158,0.0,2.6,34,0.00,,,0.00,WUHU216HW,2013-02-10 21:31:00,
2013-02-10 16:36:00,53.0,25.2,30.03,SE,135,0.0,0.0,34,0.00,,,0.00,WUHU216HW,2013-02-10 21:36:00,
2013-02-10 16:41:00,52.7,24.2,30.03,SSE,158,3.8,3.8,33,0.00,,,0.00,WUHU216HW,2013-02-10 21:41:00,
2013-02-10 16:46:00,52.5,24.7,30.03,SSE,158,0.0,3.8,34,0.00,,,0.00,WUHU216HW,2013-02-10 21:46:00,
2013-02-10 16:51:00,52.1,24.4,30.03,SSE,158,0.0,3.8,34,0.00,,,0.00,WUHU216HW,2013-02-10 21:51:00,
2013-02-10 16:57:00,51.9,24.9,30.03,SSE,158,0.0,0.0,35,0.00,,,0.00,WUHU216HW,2013-02-10 21:57:00,
2013-02-10 17:02:00,51.9,24.9,30.03,SSE,158,0.0,3.8,35,0.00,,,0.00,WUHU216HW,2013-02-10 22:02:00,
2013-02-10 17:07:00,51.6,25.3,30.03,SSE,158,0.0,3.8,36,0.00,,,0.00,WUHU216HW,2013-02-10 22:07:00,
2013-02-10 17:12:00,51.4,25.1,30.03,SSE,158,0.0,3.1,36,0.00,,,0.00,WUHU216HW,2013-02-10 22:12:00,
2013-02-10 17:17:00,51.4,25.1,30.02,SSE,158,0.0,3.1,37,0.00,,,0.00,WUHU216HW,2013-02-10 22:17:00,
2013-02-10 17:22:00,51.0,25.5,30.02,SSE,158,0.0,0.0,37,0.00,,,0.00,WUHU216HW,2013-02-10 22:22:00,
2013-02-10 17:27:00,51.0,25.5,30.02,SE,135,0.0,0.0,37,0.00,,,0.00,WUHU216HW,2013-02-10 22:27:00,
2013-02-10 17:32:00,50.9,26.0,30.03,SSE,158,0.0,0.0,38,0.00,,,0.00,WUHU216HW,2013-02-10 22:32:00,
2013-02-10 17:37:00,50.7,25.8,30.03,SSE,158,0.0,0.0,38,0.00,,,0.00,WUHU216HW,2013-02-10 22:37:00,
2013-02-10 17:42:00,50.5,25.7,30.03,SSE,158,0.0,0.0,38,0.00,,,0.00,WUHU216HW,2013-02-10 22:42:00,
2013-02-10 17:47:00,50.1,26.0,30.02,SSE,158,0.0,0.0,39,0.00,,,0.00,WUHU216HW,2013-02-10 22:47:00,
2013-02-10 17:52:00,50.1,26.0,30.02,SSE,158,0.0,0.0,39,0.00,,,0.00,WUHU216HW,2013-02-10 22:52:00,
2013-02-10 17:57:00,49.8,26.4,30.02,SSE,158,0.0,0.0,40,0.00,,,0.00,WUHU216HW,2013-02-10 22:57:00,
2013-02-10 18:02:00,49.6,26.2,30.02,SSE,158,0.0,0.0,40,0.00,,,0.00,WUHU216HW,2013-02-10 23:02:00,
2013-02-10 18:07:00,49.6,26.2,30.01,SSE,158,0.0,0.0,41,0.00,,,0.00,WUHU216HW,2013-02-10 23:07:00,
2013-02-10 18:12:00,49.4,27.2,30.01,SSE,158,0.0,0.0,42,0.00,,,0.00,WUHU216HW,2013-02-10 23:12:00,
2013-02-10 18:17:00,49.1,26.8,30.00,SSE,158,0.0,0.0,42,0.00,,,0.00,WUHU216HW,2013-02-10 23:17:00,
2013-02-10 18:20:00,35.6,31.1,30.00,NE,45,0.0,1.3,84,0.00,,,0.25,WUHU216HW,2013-02-10 23:20:00,
2013-02-10 18:22:00,35.4,30.9,29.99,East,90,0.0,1.3,84,0.00,,,0.25,WUHU216HW,2013-02-10 23:22:00,
2013-02-10 18:23:00,49.1,26.8,29.99,SSE,158,0.0,0.0,42,0.00,,,0.00,WUHU216HW,2013-02-10 23:23:00,
2013-02-10 18:24:00,35.6,31.1,29.99,East,90,0.0,1.3,84,0.00,,,0.25,WUHU216HW,2013-02-10 23:24:00,
2013-02-10 18:25:00,35.6,31.1,29.99,East,90,0.0,1.3,84,0.00,,,0.25,WUHU216HW,2013-02-10 23:25:00,
2013-02-10 18:26:00,35.7,31.3,29.99,ENE,68,3.1,3.1,84,0.00,,,0.25,WUHU216HW,2013-02-10 23:26:00,
2013-02-10 18:27:00,35.7,31.3,29.99,ENE,68,3.1,3.1,84,0.00,,,0.25,WUHU216HW,2013-02-10 23:27:00,
2013-02-10 18:28:00,48.9,27.2,29.99,SSE,158,0.0,0.0,42,0.00,,,0.00,WUHU216HW,2013-02-10 23:28:00,
2013-02-10 18:29:00,35.7,31.3,29.99,East,90,0.0,3.1,83,0.00,,,0.25,WUHU216HW,2013-02-10 23:29:00,
2013-02-10 18:30:00,35.7,31.3,29.99,NE,45,1.7,3.1,83,0.00,,,0.25,WUHU216HW,2013-02-10 23:30:00,
2013-02-10 18:31:00,35.7,31.3,30.00,NE,45,1.7,3.1,83,0.00,,,0.25,WUHU216HW,2013-02-10 23:31:00,
2013-02-10 18:32:00,35.9,31.2,30.01,NE,45,0.0,3.1,83,0.00,,,0.25,WUHU216HW,2013-02-10 23:32:00,
2013-02-10 18:33:00,48.7,26.5,30.00,SSE,158,0.0,0.0,42,0.00,,,0.00,WUHU216HW,2013-02-10 23:33:00,
2013-02-10 18:34:00,35.9,31.2,30.00,NE,45,0.0,3.1,83,0.00,,,0.25,WUHU216HW,2013-02-10 23:34:00,
2013-02-10 18:35:00,35.9,31.2,30.00,NE,45,0.0,3.1,83,0.00,,,0.25,WUHU216HW,2013-02-10 23:35:00,
2013-02-10 18:36:00,36.1,31.7,30.00,NE,45,0.0,3.1,84,0.00,,,0.25,WUHU216HW,2013-02-10 23:36:00,
2013-02-10 18:38:00,48.7,26.5,30.00,SSE,158,0.0,0.0,42,0.00,,,0.00,WUHU216HW,2013-02-10 23:38:00,
2013-02-10 18:43:00,48.5,26.9,30.00,SSE,158,0.0,0.0,42,0.00,,,0.00,WUHU216HW,2013-02-10 23:43:00,
2013-02-10 18:48:00,48.5,26.9,30.00,SSE,158,0.0,0.0,43,0.00,,,0.00,WUHU216HW,2013-02-10 23:48:00,
2013-02-10 18:50:00,36.6,32.2,29.99,NE,45,0.0,0.0,84,0.00,,,0.25,WUHU216HW,2013-02-10 23:50:00,
2013-02-10 18:51:00,36.6,32.2,29.99,NE,45,0.0,0.0,84,0.00,,,0.25,WUHU216HW,2013-02-10 23:51:00,
2013-02-10 18:52:00,36.6,32.2,30.00,NE,45,0.0,0.0,84,0.00,,,0.25,WUHU216HW,2013-02-10 23:52:00,
2013-02-10 18:53:00,48.3,26.7,30.00,SSE,158,0.0,0.0,43,0.00,,,0.00,WUHU216HW,2013-02-10 23:53:00,
2013-02-10 18:55:00,36.6,32.2,30.00,NE,45,1.1,1.1,84,0.00,,,0.25,WUHU216HW,2013-02-10 23:55:00,
2013-02-10 18:57:00,36.6,32.2,29.99,NE,45,1.1,1.1,84,0.00,,,0.25,WUHU216HW,2013-02-10 23:57:00,
2013-02-10 18:58:00,48.3,26.7,30.00,SE,135,0.0,0.0,44,0.00,,,0.00,WUHU216HW,2013-02-10 23:58:00,
2013-02-10 18:59:00,36.6,32.2,30.00,NE,45,0.0,1.1,84,0.00,,,0.25,WUHU216HW,2013-02-10 23:59:00,
2013-02-10 19:01:00,36.8,32.1,30.00,ENE,68,0.0,1.1,83,0.00,,,0.25,WUHU216HW,2013-02-11 00:01:00,
2013-02-10 19:02:00,37.0,32.3,30.00,ENE,68,0.0,1.1,83,0.00,,,0.25,WUHU216HW,2013-02-11 00:02:00,
2013-02-10 19:03:00,48.2,26.6,30.00,SE,135,0.0,0.0,43,0.00,,,0.00,WUHU216HW,2013-02-11 00:03:00,
2013-02-10 19:04:00,37.0,32.3,30.00,ENE,68,0.0,1.1,83,0.00,,,0.25,WUHU216HW,2013-02-11 00:04:00,
2013-02-10 19:05:00,37.0,32.3,30.01,ENE,68,0.0,1.1,83,0.00,,,0.25,WUHU216HW,2013-02-11 00:05:00,
2013-02-10 19:07:00,37.0,32.3,30.01,ENE,68,0.0,1.1,83,0.00,,,0.25,WUHU216HW,2013-02-11 00:07:00,
2013-02-10 19:08:00,48.0,26.4,30.00,SE,135,0.0,0.0,43,0.00,,,0.00,WUHU216HW,2013-02-11 00:08:00,
2013-02-10 19:09:00,37.0,32.3,30.00,ENE,68,0.0,0.0,83,0.00,,,0.25,WUHU216HW,2013-02-11 00:09:00,
2013-02-10 19:10:00,37.0,32.3,30.00,ENE,68,0.0,0.0,83,0.00,,,0.25,WUHU216HW,2013-02-11 00:10:00,
2013-02-10 19:12:00,37.0,32.3,30.00,ENE,68,0.0,0.0,83,0.00,,,0.25,WUHU216HW,2013-02-11 00:12:00,
2013-02-10 19:13:00,48.0,26.4,30.00,SE,135,0.0,0.0,43,0.00,,,0.00,WUHU216HW,2013-02-11 00:13:00,
2013-02-10 19:15:00,37.2,32.5,30.00,NE,45,0.0,0.0,83,0.00,,,0.25,WUHU216HW,2013-02-11 00:15:00,
2013-02-10 19:18:00,48.0,26.4,30.00,SE,135,0.0,0.0,44,0.00,,,0.00,WUHU216HW,2013-02-11 00:18:00,
2013-02-10 19:19:00,37.5,32.5,30.00,NE,45,0.0,3.5,82,0.00,,,0.25,WUHU216HW,2013-02-11 00:19:00,
2013-02-10 19:20:00,37.5,32.5,30.00,NE,45,0.0,3.5,82,0.00,,,0.25,WUHU216HW,2013-02-11 00:20:00,
2013-02-10 19:21:00,37.5,32.5,30.00,NE,45,0.0,3.5,82,0.00,,,0.25,WUHU216HW,2013-02-11 00:21:00,
2013-02-10 19:22:00,37.5,32.5,30.00,NE,45,0.0,3.5,82,0.00,,,0.25,WUHU216HW,2013-02-11 00:22:00,
2013-02-10 19:23:00,48.0,26.4,30.00,SE,135,0.0,0.0,43,0.00,,,0.00,WUHU216HW,2013-02-11 00:23:00,
2013-02-10 19:24:00,37.5,32.5,30.01,NE,45,0.0,3.5,82,0.00,,,0.25,WUHU216HW,2013-02-11 00:24:00,
2013-02-10 19:25:00,37.5,32.5,30.01,NE,45,0.0,3.5,82,0.00,,,0.25,WUHU216HW,2013-02-11 00:25:00,
2013-02-10 19:26:00,37.7,32.7,30.01,NE,45,0.0,3.5,82,0.00,,,0.25,WUHU216HW,2013-02-11 00:26:00,
2013-02-10 19:28:00,48.0,26.4,30.00,ENE,68,0.0,0.0,43,0.00,,,0.00,WUHU216HW,2013-02-11 00:28:00,
2013-02-10 19:29:00,37.7,32.7,30.01,NE,45,0.0,0.0,82,0.00,,,0.25,WUHU216HW,2013-02-11 00:29:00,
2013-02-10 19:31:00,37.9,32.9,30.01,NE,45,0.0,0.0,82,0.00,,,0.25,WUHU216HW,2013-02-11 00:31:00,
2013-02-10 19:32:00,38.1,33.1,30.01,NE,45,0.0,0.0,82,0.00,,,0.25,WUHU216HW,2013-02-11 00:32:00,
2013-02-10 19:33:00,48.0,26.4,30.01,ENE,68,0.0,0.0,43,0.00,,,0.00,WUHU216HW,2013-02-11 00:33:00,
2013-02-10 19:34:00,38.1,33.1,30.00,NE,45,0.0,0.0,82,0.00,,,0.25,WUHU216HW,2013-02-11 00:34:00,
2013-02-10 19:35:00,38.1,33.1,30.00,NE,45,0.0,0.0,82,0.00,,,0.25,WUHU216HW,2013-02-11 00:35:00,
2013-02-10 19:36:00,38.1,33.1,30.00,NE,45,0.0,0.0,81,0.00,,,0.25,WUHU216HW,2013-02-11 00:36:00,
2013-02-10 19:38:00,48.0,26.4,30.01,ENE,68,0.0,0.0,43,0.00,,,0.00,WUHU216HW,2013-02-11 00:38:00,
2013-02-10 19:43:00,48.0,26.4,30.01,ENE,68,0.0,0.0,43,0.00,,,0.00,WUHU216HW,2013-02-11 00:43:00,
2013-02-10 19:48:00,48.2,26.6,30.01,ENE,68,0.0,0.0,43,0.00,,,0.00,WUHU216HW,2013-02-11 00:48:00,
2013-02-10 19:53:00,48.2,26.6,30.01,ENE,68,0.0,0.0,43,0.00,,,0.00,WUHU216HW,2013-02-11 00:53:00,
2013-02-10 19:58:00,48.3,26.7,30.00,ENE,68,0.0,0.0,44,0.00,,,0.00,WUHU216HW,2013-02-11 00:58:00,
2013-02-10 20:03:00,48.3,26.7,30.00,ENE,68,0.0,0.0,44,0.00,,,0.00,WUHU216HW,2013-02-11 01:03:00,
2013-02-10 20:05:00,38.8,32.2,30.00,ENE,68,0.0,0.0,77,0.00,,,0.25,WUHU216HW,2013-02-11 01:05:00,
2013-02-10 20:06:00,38.8,32.2,30.00,ENE,68,0.0,0.0,78,0.00,,,0.25,WUHU216HW,2013-02-11 01:06:00,
2013-02-10 20:07:00,38.8,32.2,30.00,ENE,68,0.0,0.0,78,0.00,,,0.25,WUHU216HW,2013-02-11 01:07:00,
2013-02-10 20:08:00,48.3,26.7,30.01,ENE,68,0.0,0.0,43,0.00,,,0.00,WUHU216HW,2013-02-11 01:08:00,
2013-02-10 20:09:00,38.8,32.2,30.00,NE,45,0.0,0.0,78,0.00,,,0.25,WUHU216HW,2013-02-11 01:09:00,
2013-02-10 20:10:00,38.8,32.2,30.00,NE,45,0.0,0.0,78,0.00,,,0.25,WUHU216HW,2013-02-11 01:10:00,
2013-02-10 20:13:00,48.3,26.7,30.01,ENE,68,0.0,0.0,43,0.00,,,0.00,WUHU216HW,2013-02-11 01:13:00,
2013-02-10 20:15:00,38.8,32.2,30.00,ENE,68,0.0,0.0,77,0.00,,,0.25,WUHU216HW,2013-02-11 01:15:00,
2013-02-10 20:16:00,38.8,32.2,30.00,ENE,68,0.0,0.0,77,0.00,,,0.25,WUHU216HW,2013-02-11 01:16:00,
2013-02-10 20:17:00,38.8,32.2,30.00,ENE,68,0.0,0.0,77,0.00,,,0.25,WUHU216HW,2013-02-11 01:17:00,
2013-02-10 20:18:00,48.2,26.6,30.00,ENE,68,0.0,0.0,43,0.00,,,0.00,WUHU216HW,2013-02-11 01:18:00,
2013-02-10 20:19:00,38.8,32.2,30.00,ENE,68,0.0,0.0,77,0.00,,,0.25,WUHU216HW,2013-02-11 01:19:00,
2013-02-10 20:20:00,38.8,32.2,30.00,ENE,68,0.0,0.0,78,0.00,,,0.25,WUHU216HW,2013-02-11 01:20:00,
2013-02-10 20:21:00,38.8,32.2,30.00,ENE,68,0.0,0.0,78,0.00,,,0.25,WUHU216HW,2013-02-11 01:21:00,
2013-02-10 20:22:00,38.8,32.2,30.00,ENE,68,0.0,0.0,79,0.00,,,0.25,WUHU216HW,2013-02-11 01:22:00,
2013-02-10 20:23:00,48.2,26.6,30.00,ENE,68,0.0,0.0,43,0.00,,,0.00,WUHU216HW,2013-02-11 01:23:00,
2013-02-10 20:25:00,39.0,33.1,30.00,ENE,68,0.0,0.0,79,0.00,,,0.25,WUHU216HW,2013-02-11 01:25:00,
2013-02-10 20:27:00,39.2,32.9,30.00,East,90,0.0,0.0,78,0.00,,,0.25,WUHU216HW,2013-02-11 01:27:00,
2013-02-10 20:28:00,48.3,26.7,30.00,ENE,68,0.0,0.0,43,0.00,,,0.00,WUHU216HW,2013-02-11 01:28:00,
2013-02-10 20:29:00,39.2,32.9,30.00,NE,45,0.0,0.0,78,0.00,,,0.25,WUHU216HW,2013-02-11 01:29:00,
2013-02-10 20:30:00,39.3,33.1,30.00,NE,45,0.0,0.0,78,0.00,,,0.25,WUHU216HW,2013-02-11 01:30:00,
2013-02-10 20:31:00,39.3,33.1,30.00,NE,45,0.0,0.0,78,0.00,,,0.25,WUHU216HW,2013-02-11 01:31:00,
2013-02-10 20:32:00,39.3,33.1,30.00,NE,45,0.0,0.0,78,0.00,,,0.25,WUHU216HW,2013-02-11 01:32:00,
2013-02-10 20:33:00,48.3,26.7,30.00,NE,45,0.0,0.0,44,0.00,,,0.00,WUHU216HW,2013-02-11 01:33:00,
2013-02-10 20:35:00,39.0,32.4,30.00,ENE,68,0.0,0.0,77,0.00,,,0.25,WUHU216HW,2013-02-11 01:35:00,
2013-02-10 20:36:00,39.0,32.4,30.00,ENE,68,0.0,0.0,77,0.00,,,0.25,WUHU216HW,2013-02-11 01:36:00,
2013-02-10 20:37:00,39.0,32.4,30.00,ENE,68,0.0,0.0,77,0.00,,,0.25,WUHU216HW,2013-02-11 01:37:00,
2013-02-10 20:38:00,48.3,26.7,30.00,NE,45,0.0,0.0,43,0.00,,,0.00,WUHU216HW,2013-02-11 01:38:00,
2013-02-10 20:39:00,39.0,32.4,30.00,ENE,68,0.0,0.0,77,0.00,,,0.25,WUHU216HW,2013-02-11 01:39:00,
2013-02-10 20:40:00,39.0,32.4,30.00,ENE,68,0.0,0.0,77,0.00,,,0.25,WUHU216HW,2013-02-11 01:40:00,
2013-02-10 20:43:00,48.3,26.7,30.00,East,90,0.0,0.0,43,0.00,,,0.00,WUHU216HW,2013-02-11 01:43:00,
2013-02-10 20:48:00,48.5,26.9,30.00,ESE,113,0.0,0.0,43,0.00,,,0.00,WUHU216HW,2013-02-11 01:48:00,
2013-02-10 20:53:00,48.5,26.9,30.00,NE,45,0.0,0.0,43,0.00,,,0.00,WUHU216HW,2013-02-11 01:53:00,
2013-02-10 20:58:00,48.7,27.6,30.00,NE,45,0.0,0.0,44,0.00,,,0.00,WUHU216HW,2013-02-11 01:58:00,
2013-02-10 21:01:00,39.3,33.1,30.00,ENE,68,0.0,0.0,78,0.00,,,0.25,WUHU216HW,2013-02-11 02:01:00,
2013-02-10 21:02:00,39.3,33.1,29.99,ENE,68,0.0,0.0,78,0.00,,,0.25,WUHU216HW,2013-02-11 02:02:00,
2013-02-10 21:03:00,48.7,27.6,30.00,South,180,0.0,0.0,44,0.00,,,0.00,WUHU216HW,2013-02-11 02:03:00,
2013-02-10 21:05:00,39.3,33.1,29.98,ENE,68,0.0,0.0,77,0.00,,,0.25,WUHU216HW,2013-02-11 02:05:00,
2013-02-10 21:06:00,39.3,33.1,29.98,ENE,68,0.0,0.0,77,0.00,,,0.25,WUHU216HW,2013-02-11 02:06:00,
2013-02-10 21:07:00,39.3,33.1,29.98,ENE,68,0.0,0.0,77,0.00,,,0.25,WUHU216HW,2013-02-11 02:07:00,
2013-02-10 21:08:00,48.9,27.8,30.01,South,180,0.0,0.0,44,0.00,,,0.00,WUHU216HW,2013-02-11 02:08:00,
2013-02-10 21:09:00,39.3,33.1,29.98,ENE,68,0.0,0.0,77,0.00,,,0.25,WUHU216HW,2013-02-11 02:09:00,
2013-02-10 21:10:00,39.3,33.1,29.98,ENE,68,0.0,0.0,77,0.00,,,0.25,WUHU216HW,2013-02-11 02:10:00,
2013-02-10 21:11:00,39.3,33.1,29.98,ENE,68,0.0,0.0,77,0.00,,,0.25,WUHU216HW,2013-02-11 02:11:00,
2013-02-10 21:12:00,39.3,33.1,29.98,ENE,68,0.0,0.0,77,0.00,,,0.25,WUHU216HW,2013-02-11 02:12:00,
2013-02-10 21:13:00,48.9,27.8,30.00,SSE,158,0.0,0.0,44,0.00,,,0.00,WUHU216HW,2013-02-11 02:13:00,
2013-02-10 21:14:00,39.3,33.1,29.98,ENE,68,0.0,0.0,77,0.00,,,0.25,WUHU216HW,2013-02-11 02:14:00,
2013-02-10 21:15:00,39.3,33.1,29.98,ENE,68,0.0,0.0,78,0.00,,,0.25,WUHU216HW,2013-02-11 02:15:00,
2013-02-10 21:16:00,39.3,33.1,29.98,ENE,68,0.0,0.0,78,0.00,,,0.25,WUHU216HW,2013-02-11 02:16:00,
2013-02-10 21:17:00,39.3,33.1,29.98,ENE,68,0.0,0.0,78,0.00,,,0.25,WUHU216HW,2013-02-11 02:17:00,
2013-02-10 21:18:00,48.9,27.8,30.00,SSE,158,0.0,0.0,44,0.00,,,0.00,WUHU216HW,2013-02-11 02:18:00,
2013-02-10 21:23:00,48.9,27.8,30.00,SSE,158,0.0,0.0,44,0.00,,,0.00,WUHU216HW,2013-02-11 02:23:00,
2013-02-10 21:29:00,48.9,27.8,30.00,SSE,158,0.0,0.0,45,0.00,,,0.00,WUHU216HW,2013-02-11 02:29:00,
2013-02-10 21:34:00,48.9,27.8,30.00,SSE,158,0.0,0.0,45,0.00,,,0.00,WUHU216HW,2013-02-11 02:34:00,
2013-02-10 21:39:00,49.1,28.5,30.00,SSE,158,0.0,0.0,45,0.00,,,0.00,WUHU216HW,2013-02-11 02:39:00,
2013-02-10 21:44:00,49.1,28.5,30.00,ENE,68,0.0,0.0,46,0.00,,,0.00,WUHU216HW,2013-02-11 02:44:00,
2013-02-10 21:48:00,49.1,28.5,30.01,East,90,0.0,0.0,46,0.00,,,0.00,WUHU216HW,2013-02-11 02:48:00,
2013-02-10 21:54:00,49.1,28.5,30.00,South,180,0.0,0.0,47,0.00,,,0.00,WUHU216HW,2013-02-11 02:54:00,
2013-02-10 21:59:00,49.1,28.5,30.00,South,180,0.0,0.0,47,0.00,,,0.00,WUHU216HW,2013-02-11 02:59:00,
2013-02-10 22:04:00,49.1,28.5,30.01,SE,135,0.0,0.0,48,0.00,,,0.00,WUHU216HW,2013-02-11 03:04:00,
2013-02-10 22:09:00,49.1,28.5,30.01,SSE,158,0.0,0.0,48,0.00,,,0.00,WUHU216HW,2013-02-11 03:09:00,
2013-02-10 22:14:00,49.1,28.5,30.00,SSE,158,0.0,0.0,49,0.00,,,0.00,WUHU216HW,2013-02-11 03:14:00,
2013-02-10 22:19:00,49.1,28.5,30.00,SSE,158,0.0,0.0,49,0.00,,,0.00,WUHU216HW,2013-02-11 03:19:00,
2013-02-10 22:20:00,39.7,32.7,29.94,NE,45,0.0,0.0,76,0.00,,,0.25,WUHU216HW,2013-02-11 03:20:00,
2013-02-10 22:21:00,39.7,32.7,29.94,NE,45,0.0,0.0,76,0.00,,,0.25,WUHU216HW,2013-02-11 03:21:00,
2013-02-10 22:22:00,39.5,32.9,29.94,NE,45,0.0,0.0,77,0.00,,,0.25,WUHU216HW,2013-02-11 03:22:00,
2013-02-10 22:23:00,39.5,32.9,29.94,NE,45,0.0,0.0,77,0.00,,,0.25,WUHU216HW,2013-02-11 03:23:00,
2013-02-10 22:24:00,48.9,30.5,30.00,SSE,158,0.0,0.0,50,0.00,,,0.00,WUHU216HW,2013-02-11 03:24:00,
2013-02-10 22:25:00,39.5,32.9,29.94,NE,45,0.0,0.0,77,0.00,,,0.25,WUHU216HW,2013-02-11 03:25:00,
2013-02-10 22:26:00,39.5,32.9,29.94,ENE,68,0.0,0.0,76,0.00,,,0.25,WUHU216HW,2013-02-11 03:26:00,
2013-02-10 22:27:00,39.5,32.9,29.94,ENE,68,0.0,0.0,76,0.00,,,0.25,WUHU216HW,2013-02-11 03:27:00,
2013-02-10 22:28:00,39.5,32.9,29.94,ENE,68,0.0,0.0,76,0.00,,,0.25,WUHU216HW,2013-02-11 03:28:00,
2013-02-10 22:29:00,48.9,30.5,30.00,SSE,158,0.0,0.0,50,0.00,,,0.00,WUHU216HW,2013-02-11 03:29:00,
2013-02-10 22:30:00,39.3,32.4,29.94,NE,45,0.0,0.0,76,0.00,,,0.25,WUHU216HW,2013-02-11 03:30:00,
2013-02-10 22:31:00,39.3,32.4,29.94,NE,45,0.0,0.0,76,0.00,,,0.25,WUHU216HW,2013-02-11 03:31:00,
2013-02-10 22:33:00,39.3,32.4,29.93,NE,45,0.0,0.0,76,0.00,,,0.25,WUHU216HW,2013-02-11 03:33:00,
2013-02-10 22:34:00,48.9,30.5,29.99,SSE,158,0.0,0.0,51,0.00,,,0.00,WUHU216HW,2013-02-11 03:34:00,
2013-02-10 22:39:00,48.9,30.5,29.98,SSE,158,2.9,2.9,52,0.00,,,0.00,WUHU216HW,2013-02-11 03:39:00,
2013-02-10 22:40:00,39.5,32.9,29.93,NE,45,0.0,0.0,77,0.00,,,0.25,WUHU216HW,2013-02-11 03:40:00,
2013-02-10 22:41:00,39.5,32.9,29.92,NE,45,0.0,0.0,77,0.00,,,0.25,WUHU216HW,2013-02-11 03:41:00,
2013-02-10 22:42:00,39.5,32.9,29.92,ENE,68,0.0,0.0,77,0.00,,,0.25,WUHU216HW,2013-02-11 03:42:00,
2013-02-10 22:43:00,39.5,32.9,29.92,ENE,68,0.0,0.0,77,0.00,,,0.25,WUHU216HW,2013-02-11 03:43:00,
2013-02-10 22:44:00,48.7,32.7,29.98,SSE,158,0.0,2.9,55,0.00,,,0.00,WUHU216HW,2013-02-11 03:44:00,
2013-02-10 22:45:00,39.5,32.9,29.93,ENE,68,0.0,0.0,77,0.00,,,0.25,WUHU216HW,2013-02-11 03:45:00,
2013-02-10 22:46:00,39.5,32.9,29.93,ENE,68,0.0,0.0,77,0.00,,,0.25,WUHU216HW,2013-02-11 03:46:00,
2013-02-10 22:47:00,39.5,32.9,29.93,ENE,68,0.0,0.0,77,0.00,,,0.25,WUHU216HW,2013-02-11 03:47:00,
2013-02-10 22:48:00,39.3,32.7,29.93,ENE,68,0.0,0.0,77,0.00,,,0.25,WUHU216HW,2013-02-11 03:48:00,
2013-02-10 22:49:00,48.5,34.4,29.98,SSE,158,0.0,3.5,58,0.00,,,0.00,WUHU216HW,2013-02-11 03:49:00,
2013-02-10 22:50:00,39.5,33.2,29.93,ENE,68,0.0,0.0,78,0.00,,,0.25,WUHU216HW,2013-02-11 03:50:00,
2013-02-10 22:51:00,39.5,33.2,29.93,ENE,68,0.0,0.0,78,0.00,,,0.25,WUHU216HW,2013-02-11 03:51:00,
2013-02-10 22:52:00,39.5,33.2,29.93,ENE,68,0.0,0.0,78,0.00,,,0.25,WUHU216HW,2013-02-11 03:52:00,
2013-02-10 22:53:00,39.5,33.2,29.93,ENE,68,0.0,0.0,78,0.00,,,0.25,WUHU216HW,2013-02-11 03:53:00,
2013-02-10 22:54:00,48.0,35.6,29.97,SSE,158,0.0,3.5,62,0.00,,,0.00,WUHU216HW,2013-02-11 03:54:00,
2013-02-10 22:55:00,39.5,33.2,29.93,NE,45,0.0,0.0,78,0.00,,,0.25,WUHU216HW,2013-02-11 03:55:00,
2013-02-10 22:56:00,39.5,33.2,29.93,NE,45,0.0,0.0,78,0.00,,,0.25,WUHU216HW,2013-02-11 03:56:00,
2013-02-10 22:57:00,39.3,33.1,29.93,NE,45,0.0,0.0,78,0.00,,,0.25,WUHU216HW,2013-02-11 03:57:00,
2013-02-10 22:58:00,39.3,33.1,29.93,NE,45,0.0,0.0,78,0.00,,,0.25,WUHU216HW,2013-02-11 03:58:00,
2013-02-10 22:59:00,47.4,36.6,29.97,SSE,158,0.0,0.0,67,0.00,,,0.00,WUHU216HW,2013-02-11 03:59:00,
2013-02-10 23:00:00,39.0,33.1,29.93,ENE,68,0.0,0.0,79,0.00,,,0.25,WUHU216HW,2013-02-11 04:00:00,
2013-02-10 23:01:00,39.0,33.1,29.93,ENE,68,0.0,0.0,79,0.00,,,0.25,WUHU216HW,2013-02-11 04:01:00,
2013-02-10 23:02:00,39.0,33.1,29.93,ENE,68,0.0,0.0,79,0.00,,,0.25,WUHU216HW,2013-02-11 04:02:00,
2013-02-10 23:04:00,46.9,37.7,29.96,SSE,158,0.0,0.0,70,0.00,,,0.00,WUHU216HW,2013-02-11 04:04:00,
2013-02-10 23:05:00,39.0,33.1,29.93,ENE,68,0.0,0.0,79,0.00,,,0.25,WUHU216HW,2013-02-11 04:05:00,
2013-02-10 23:06:00,39.0,33.1,29.93,ENE,68,0.0,0.0,79,0.00,,,0.25,WUHU216HW,2013-02-11 04:06:00,
2013-02-10 23:07:00,38.8,32.9,29.93,NE,45,0.0,0.0,79,0.00,,,0.25,WUHU216HW,2013-02-11 04:07:00,
2013-02-10 23:09:00,46.7,38.2,29.95,SSE,158,0.0,0.0,72,0.00,,,0.00,WUHU216HW,2013-02-11 04:09:00,
2013-02-10 23:10:00,38.8,32.9,29.92,NE,45,0.0,0.0,80,0.00,,,0.25,WUHU216HW,2013-02-11 04:10:00,
2013-02-10 23:11:00,38.8,32.9,29.93,NE,45,0.0,0.0,80,0.00,,,0.25,WUHU216HW,2013-02-11 04:11:00,
2013-02-10 23:12:00,38.8,32.9,29.93,NE,45,0.0,0.0,80,0.00,,,0.25,WUHU216HW,2013-02-11 04:12:00,
2013-02-10 23:13:00,38.8,32.9,29.93,NE,45,0.0,0.0,80,0.00,,,0.25,WUHU216HW,2013-02-11 04:13:00,
2013-02-10 23:14:00,46.2,38.4,29.94,SSE,158,0.0,0.0,74,0.02,,,0.02,WUHU216HW,2013-02-11 04:14:00,
2013-02-10 23:15:00,38.4,32.9,29.93,NE,45,0.0,0.0,80,0.00,,,0.25,WUHU216HW,2013-02-11 04:15:00,
2013-02-10 23:17:00,38.4,32.9,29.93,NE,45,0.0,0.0,81,0.00,,,0.25,WUHU216HW,2013-02-11 04:17:00,
2013-02-10 23:18:00,38.4,32.9,29.93,NE,45,0.0,0.0,81,0.00,,,0.25,WUHU216HW,2013-02-11 04:18:00,
2013-02-10 23:19:00,46.0,38.2,29.94,SSE,158,0.0,0.0,74,0.02,,,0.02,WUHU216HW,2013-02-11 04:19:00,
2013-02-10 23:24:00,45.8,38.7,29.94,South,180,0.0,0.0,76,0.02,,,0.02,WUHU216HW,2013-02-11 04:24:00,
2013-02-10 23:29:00,45.5,39.4,29.93,SE,135,0.0,0.0,79,0.02,,,0.02,WUHU216HW,2013-02-11 04:29:00,
2013-02-10 23:34:00,45.3,39.2,29.92,SSE,158,0.0,0.0,79,0.02,,,0.02,WUHU216HW,2013-02-11 04:34:00,
2013-02-10 23:39:00,45.3,39.2,29.92,ESE,113,0.0,0.0,81,0.02,,,0.02,WUHU216HW,2013-02-11 04:39:00,
2013-02-10 23:44:00,45.3,39.2,29.92,SE,135,0.0,3.5,81,0.02,,,0.02,WUHU216HW,2013-02-11 04:44:00,
2013-02-10 23:49:00,45.3,39.2,29.92,South,180,0.0,3.5,82,0.02,,,0.02,WUHU216HW,2013-02-11 04:49:00,
2013-02-10 23:54:00,45.3,39.2,29.91,SSE,158,0.0,0.0,82,0.02,,,0.02,WUHU216HW,2013-02-11 04:54:00,
2013-02-10 23:56:00,38.4,33.4,29.92,NW,315,0.0,0.0,82,0.00,,,0.25,WUHU216HW,2013-02-11 04:56:00,
2013-02-10 23:57:00,38.4,33.4,29.92,NE,45,4.4,4.4,82,0.00,,,0.25,WUHU216HW,2013-02-11 04:57:00,
2013-02-10 23:58:00,38.4,33.4,29.92,NE,45,4.4,4.4,82,0.00,,,0.25,WUHU216HW,2013-02-11 04:58:00,
2013-02-10 23:59:00,45.5,40.3,29.91,SSE,158,0.0,0.0,82,0.02,,,0.02,WUHU216HW,2013-02-11 04:59:00,